Location: Berkeley
(37.8716°N, 122.2727°W)
Time: 18:14:02
(UTC-07:00)

Tiangong 2 - Visible Passes

Search period start: 20 October 2017 00:00
Search period end: 30 October 2017 00:00
Orbit: 388 x 391 km, 42.8° (Epoch: 20 October)

Date Brightness Start Highest point End Pass type
(mag) Time Alt. Az. Time Alt. Az. Time Alt. Az.
20 Oct 1.5 05:42:42 57° SSE 05:42:42 57° SSE 05:45:24 10° ESE visible
21 Oct 2.7 06:20:16 19° SW 06:20:59 20° SW 06:23:25 10° SSE visible
22 Oct 3.8 05:25:34 14° SSE 05:25:34 14° SSE 05:26:13 10° SE visible
28 Oct 3.1 19:21:56 10° S 19:23:51 15° SE 19:23:57 15° SE visible
29 Oct 2.5 19:59:21 10° SW 20:01:22 33° SSW 20:01:22 33° SSW visible
